Date String (YYYY-MM-DD hh:mm:ss) UTC,Instrument flags,Ambient pressure (hPa),Sample flow (lpm),Bypass flow (lpm),Sample temperature (°C),Ambient temperature (°C),ASC tube jacket temperature (°C),LED temperature (°C),Box temperature (°C),Sample RH (%),Span deviation,Mass concentration (μg/m³),Mass concentration (μg/m³),Mass concentration (μg/m³)
DateTimeUTC,F1_M11,P_M11,Q1_M11,Q2_M11,T1_M11,T2_M11,T3_M11,T4_M11,T5_M11,U1_M11,ZSPAN_M11,X0_M11,X2_M11,X1_M11
2023-05-09 09:00:00,,0828.3,5.00,0.00,28.0,25.8,00.0,36.7,29.5,16.6,0000.0,0007.07,0003.15,0002.01
2023-05-09 09:01:00,,0828.3,4.99,0.00,28.0,25.8,00.0,36.7,29.5,17.1,0000.0,0006.55,0003.16,0002.01
2023-05-09 09:02:00,,0828.4,5.00,0.00,28.0,25.8,00.0,36.6,29.5,17.5,0000.0,0006.42,0003.15,0001.99
2023-05-09 09:03:00,,0828.4,5.00,0.00,27.9,25.7,00.0,36.6,29.5,17.6,0000.0,0006.08,0003.11,0001.98
2023-05-09 09:04:00,,0828.3,5.00,0.00,27.9,25.7,00.0,36.6,29.4,17.7,0000.0,0005.98,0003.10,0001.98
2023-05-09 09:05:00,,0828.4,4.99,0.00,27.9,25.7,00.0,36.5,29.4,17.8,0000.0,0006.37,0003.10,0001.98
2023-05-09 09:06:00,,0828.3,5.00,0.00,27.8,25.6,00.0,36.5,29.4,17.8,0000.0,0006.99,0003.12,0001.99
2023-05-09 09:07:00,,0828.3,5.00,0.00,27.8,25.6,00.0,36.5,29.3,17.9,0000.0,0007.14,0003.14,0002.00
2023-05-09 09:08:00,,0828.4,4.99,0.00,27.8,25.6,00.0,36.5,29.4,18.1,0000.0,0007.07,0003.15,0002.02
2023-05-09 09:09:00,,0828.3,5.01,0.00,27.8,25.6,00.0,36.4,29.3,18.3,0000.0,0007.18,0003.18,0002.04
2023-05-09 09:10:00,,0828.3,5.01,0.00,27.8,25.6,00.0,36.4,29.3,18.4,0000.0,0007.53,0003.19,0002.05
2023-05-09 09:11:00,,0828.4,5.00,0.00,27.7,25.6,00.0,36.4,29.3,18.2,0000.0,0007.82,0003.26,0002.07
2023-05-09 09:12:00,,0828.3,5.00,0.00,27.7,25.6,00.0,36.4,29.3,18.3,0000.0,0007.67,0003.27,0002.08
2023-05-09 09:13:00,,0828.4,5.00,0.00,27.7,25.6,00.0,36.4,29.3,18.6,0000.0,0007.57,0003.23,0002.08
2023-05-09 09:14:00,,0828.4,5.00,0.00,27.7,25.6,00.0,36.3,29.3,18.7,0000.0,0007.70,0003.25,0002.10
2023-05-09 09:15:00,,0828.4,4.99,0.00,27.7,25.7,00.0,36.3,29.3,18.8,0000.0,0007.80,0003.24,0002.10
2023-05-09 09:16:00,,0828.4,4.99,0.00,27.7,25.7,00.0,36.3,29.3,18.7,0000.0,0008.01,0003.26,0002.12
2023-05-09 09:17:00,,0828.4,4.99,0.00,27.7,25.7,00.0,36.3,29.3,18.8,0000.0,0007.96,0003.28,0002.13
2023-05-09 09:18:00,,0828.4,5.01,0.00,27.7,25.7,00.0,36.3,29.2,18.8,0000.0,0007.85,0003.26,0002.13
2023-05-09 09:19:00,,0828.4,5.01,0.00,27.7,25.6,00.0,36.3,29.2,18.8,0000.0,0007.89,0003.29,0002.14
2023-05-09 09:20:00,,0828.4,5.00,0.00,27.6,25.6,00.0,36.2,29.2,18.9,0000.0,0007.88,0003.29,0002.14
2023-05-09 09:21:00,,0828.4,5.00,0.00,27.6,25.6,00.0,36.2,29.2,18.9,0000.0,0007.67,0003.32,0002.14
2023-05-09 09:22:00,,0828.4,5.00,0.00,27.6,25.6,00.0,36.2,29.2,19.0,0000.0,0007.44,0003.31,0002.15
2023-05-09 09:23:00,,0828.4,5.01,0.00,27.6,25.6,00.0,36.2,29.2,19.3,0000.0,0007.72,0003.36,0002.16
2023-05-09 09:24:00,,0828.3,4.99,0.00,27.6,25.6,00.0,36.2,29.2,19.2,0000.0,0007.86,0003.41,0002.18
2023-05-09 09:25:00,,0828.3,5.00,0.00,27.6,25.5,00.0,36.2,29.1,19.2,0000.0,0007.84,0003.42,0002.18
2023-05-09 09:26:00,,0828.3,4.99,0.00,27.6,25.5,00.0,36.1,29.1,19.3,0000.0,0007.76,0003.43,0002.19
2023-05-09 09:27:00,,0828.4,5.01,0.00,27.5,25.5,00.0,36.1,29.1,19.3,0000.0,0007.49,0003.45,0002.19
2023-05-09 09:28:00,,0828.4,5.01,0.00,27.5,25.5,00.0,36.1,29.1,19.3,0000.0,0006.97,0003.42,0002.18
2023-05-09 09:29:00,,0828.4,5.00,0.00,27.5,25.5,00.0,36.1,29.1,19.3,0000.0,0007.09,0003.43,0002.18
2023-05-09 09:30:00,,0828.4,4.98,0.00,27.5,25.5,00.0,36.1,29.1,19.2,0000.0,0007.81,0003.44,0002.20
2023-05-09 09:31:00,,0828.4,4.99,0.00,27.5,25.5,00.0,36.1,29.1,19.2,0000.0,0008.49,0003.45,0002.20
2023-05-09 09:32:00,,0828.5,5.00,0.00,27.5,25.4,00.0,36.1,29.0,19.3,0000.0,0008.65,0003.45,0002.20
2023-05-09 09:33:00,,0828.5,5.00,0.00,27.5,25.4,00.0,36.0,29.0,19.4,0000.0,0009.05,0003.42,0002.20
2023-05-09 09:34:00,,0828.5,5.01,0.00,27.5,25.4,00.0,36.0,29.0,19.6,0000.0,0008.88,0003.40,0002.21
2023-05-09 09:35:00,,0828.5,5.01,0.00,27.4,25.4,00.0,36.0,29.0,19.9,0000.0,0008.97,0003.41,0002.21
2023-05-09 09:36:00,,0828.5,4.99,0.00,27.4,25.4,00.0,36.0,29.1,20.0,0000.0,0009.02,0003.41,0002.21
2023-05-09 09:37:00,,0828.5,4.99,0.00,27.4,25.5,00.0,36.0,29.1,19.8,0000.0,0009.05,0003.41,0002.20
2023-05-09 09:38:00,,0828.5,5.00,0.00,27.4,25.4,00.0,36.0,29.1,19.7,0000.0,0009.08,0003.41,0002.20
2023-05-09 09:39:00,,0828.5,5.00,0.00,27.4,25.4,00.0,36.0,29.0,19.8,0000.0,0009.13,0003.44,0002.22
2023-05-09 09:40:00,,0828.6,4.99,0.00,27.4,25.5,00.0,36.0,29.1,19.8,0000.0,0009.09,0003.46,0002.24
2023-05-09 09:41:00,,0828.6,5.01,0.00,27.4,25.5,00.0,36.0,29.0,20.0,0000.0,0008.61,0003.43,0002.26
2023-05-09 09:42:00,,0828.5,5.00,0.00,27.4,25.5,00.0,35.9,29.0,20.4,0000.0,0007.91,0003.42,0002.28
2023-05-09 09:43:00,,0828.6,5.00,0.00,27.4,25.5,00.0,35.9,29.0,20.4,0000.0,0008.15,0003.44,0002.30
2023-05-09 09:44:00,,0828.6,5.01,0.00,27.4,25.5,00.0,35.9,29.0,20.3,0000.0,0008.50,0003.48,0002.31
2023-05-09 09:45:00,,0828.6,5.01,0.00,27.4,25.5,00.0,35.9,29.0,20.2,0000.0,0008.55,0003.51,0002.32
2023-05-09 09:46:00,,0828.6,5.00,0.00,27.4,25.5,00.0,35.9,29.0,20.0,0000.0,0008.44,0003.48,0002.33
2023-05-09 09:47:00,,0828.6,5.00,0.00,27.4,25.5,00.0,35.9,29.0,20.1,0000.0,0008.63,0003.48,0002.35
2023-05-09 09:48:00,,0828.6,4.99,0.00,27.4,25.5,00.0,35.9,29.0,20.2,0000.0,0008.79,0003.48,0002.37
2023-05-09 09:49:00,,0828.6,4.99,0.00,27.4,25.5,00.0,35.9,29.0,20.2,0000.0,0008.84,0003.51,0002.40
2023-05-09 09:50:00,,0828.6,4.99,0.00,27.4,25.5,00.0,35.9,29.0,20.1,0000.0,0008.98,0003.55,0002.40
2023-05-09 09:51:00,,0828.7,5.00,0.00,27.4,25.5,00.0,35.9,29.0,20.3,0000.0,0009.13,0003.58,0002.41
2023-05-09 09:52:00,,0828.7,5.00,0.00,27.4,25.5,00.0,35.9,29.0,20.2,0000.0,0009.14,0003.63,0002.42
2023-05-09 09:53:00,,0828.7,5.00,0.00,27.3,25.4,00.0,35.9,29.0,20.1,0000.0,0009.08,0003.62,0002.42
2023-05-09 09:54:00,,0828.7,5.00,0.00,27.3,25.4,00.0,35.8,29.0,20.0,0000.0,0008.93,0003.61,0002.42
2023-05-09 09:55:00,,0828.7,5.00,0.00,27.3,25.4,00.0,35.8,28.9,20.1,0000.0,0008.15,0003.62,0002.43
2023-05-09 09:56:00,,0828.7,5.00,0.00,27.3,25.4,00.0,35.8,28.9,20.1,0000.0,0007.91,0003.59,0002.44
2023-05-09 09:57:00,,0828.7,5.00,0.00,27.3,25.4,00.0,35.8,28.9,20.2,0000.0,0007.85,0003.59,0002.45
2023-05-09 09:58:00,,0828.7,5.01,0.00,27.3,25.4,00.0,35.8,29.0,20.1,0000.0,0007.77,0003.60,0002.47
2023-05-09 09:59:00,,0828.8,5.00,0.00,27.3,25.4,00.0,35.8,29.0,19.9,0000.0,0008.46,0003.68,0002.47
